Location: Cudham
(51.3000°N, 0.0667°E)
Time: 17:28:49
(UTC+00:00)

USA 229 DEB - Pass Details

Date: 27 April 2026
Orbit: 844 x 1364 km, 63.4° (Epoch: 10 January)

Event Time Altitude Azimuth Distance (km) Brightness Sun altitude
Rises 21:10:58 0° 311° (NW) 3,866 8.5 -15.3°
Reaches altitude 10° 21:13:34 10° 316° (NW) 2,982 7.4 -15.6°
Maximum altitude 21:20:39 56° 34° (NE) 1,420 4.4 -16.3°
Enters shadow 21:26:57 17° 109° (ESE) 2,797 5.4 -16.9°
